Time,TemperatureF,DewpointF,PressureIn,WindDirection,WindDirectionDegrees,WindSpeedMPH,WindSpeedGustMPH,Humidity,HourlyPrecipIn,Conditions,Clouds,dailyrainin,SoftwareType,DateUTC
2013-04-23 00:12:00,48.9,48.4,30.16,NW,315,2.2,-999.0,98,-99.99,,,0.00,Acu-Link.com,2013-04-23 04:12:00,
2013-04-23 00:28:00,48.7,48.2,30.15,ESE,112,1.1,-999.0,98,-99.99,,,0.00,Acu-Link.com,2013-04-23 04:28:00,
2013-04-23 00:43:00,48.6,48.1,30.15,West,270,2.7,-999.0,98,-99.99,,,0.01,Acu-Link.com,2013-04-23 04:43:00,
2013-04-23 00:58:00,48.4,47.9,30.15,North,0,1.7,-999.0,98,-99.99,,,0.01,Acu-Link.com,2013-04-23 04:58:00,
2013-04-23 01:14:00,48.2,47.7,30.14,ESE,112,0.0,-999.0,98,-99.99,,,0.01,Acu-Link.com,2013-04-23 05:14:00,
2013-04-23 01:29:00,48.2,47.7,30.14,NNE,22,1.7,-999.0,98,-99.99,,,0.01,Acu-Link.com,2013-04-23 05:29:00,
2013-04-23 01:44:00,48.2,47.7,30.14,East,90,2.2,-999.0,98,-99.99,,,0.02,Acu-Link.com,2013-04-23 05:44:00,
2013-04-23 01:59:00,48.2,47.7,30.13,West,270,0.0,-999.0,98,-99.99,,,0.02,Acu-Link.com,2013-04-23 05:59:00,
2013-04-23 02:15:00,48.0,47.5,30.13,NE,45,0.0,-999.0,98,-99.99,,,0.02,Acu-Link.com,2013-04-23 06:15:00,
2013-04-23 02:30:00,48.0,47.5,30.12,WNW,292,0.0,-999.0,98,-99.99,,,0.02,Acu-Link.com,2013-04-23 06:30:00,
2013-04-23 02:45:00,47.8,47.3,30.12,SW,225,1.7,-999.0,98,-99.99,,,0.02,Acu-Link.com,2013-04-23 06:45:00,
2013-04-23 03:01:00,48.0,47.5,30.12,ENE,67,0.0,-999.0,98,-99.99,,,0.02,Acu-Link.com,2013-04-23 07:01:00,
2013-04-23 03:16:00,47.8,47.3,30.11,North,0,2.7,-999.0,98,-99.99,,,0.02,Acu-Link.com,2013-04-23 07:16:00,
2013-04-23 03:31:00,48.0,47.5,30.11,ESE,112,0.0,-999.0,98,-99.99,,,0.02,Acu-Link.com,2013-04-23 07:31:00,
2013-04-23 03:47:00,48.0,47.5,30.11,West,270,2.7,-999.0,98,-99.99,,,0.02,Acu-Link.com,2013-04-23 07:47:00,
2013-04-23 04:02:00,48.0,47.5,30.11,East,90,1.1,-999.0,98,-99.99,,,0.02,Acu-Link.com,2013-04-23 08:02:00,
2013-04-23 04:17:00,47.8,47.3,30.11,NE,45,3.7,-999.0,98,-99.99,,,0.02,Acu-Link.com,2013-04-23 08:17:00,
2013-04-23 04:32:00,47.8,47.3,30.11,ENE,67,1.7,-999.0,98,-99.99,,,0.02,Acu-Link.com,2013-04-23 08:32:00,
2013-04-23 04:48:00,47.5,47.0,30.11,WNW,292,1.1,-999.0,98,-99.99,,,0.03,Acu-Link.com,2013-04-23 08:48:00,
2013-04-23 05:03:00,47.3,46.8,30.10,ENE,67,3.7,-999.0,98,-99.99,,,0.04,Acu-Link.com,2013-04-23 09:03:00,
2013-04-23 05:18:00,46.9,46.4,30.10,East,90,0.0,-999.0,98,-99.99,,,0.05,Acu-Link.com,2013-04-23 09:18:00,
2013-04-23 05:34:00,47.1,46.6,30.10,West,270,2.7,-999.0,98,-99.99,,,0.05,Acu-Link.com,2013-04-23 09:34:00,
2013-04-23 05:49:00,46.9,46.4,30.10,ESE,112,0.0,-999.0,98,-99.99,,,0.05,Acu-Link.com,2013-04-23 09:49:00,
2013-04-23 06:05:00,46.9,46.4,30.10,SW,225,1.7,-999.0,98,-99.99,,,0.05,Acu-Link.com,2013-04-23 10:05:00,
2013-04-23 06:20:00,46.9,46.4,30.10,NNW,337,0.0,-999.0,98,-99.99,,,0.05,Acu-Link.com,2013-04-23 10:20:00,
2013-04-23 06:35:00,47.1,46.6,30.10,NNE,22,0.0,-999.0,98,-99.99,,,0.05,Acu-Link.com,2013-04-23 10:35:00,
2013-04-23 06:50:00,47.5,47.0,30.11,ESE,112,1.7,-999.0,98,-99.99,,,0.05,Acu-Link.com,2013-04-23 10:50:00,
2013-04-23 07:06:00,47.7,47.2,30.11,SSE,157,0.0,-999.0,98,-99.99,,,0.05,Acu-Link.com,2013-04-23 11:06:00,
2013-04-23 07:21:00,47.8,47.3,30.11,West,270,0.0,-999.0,98,-99.99,,,0.05,Acu-Link.com,2013-04-23 11:21:00,
2013-04-23 07:36:00,48.0,47.5,30.12,ESE,112,0.0,-999.0,98,-99.99,,,0.05,Acu-Link.com,2013-04-23 11:36:00,
2013-04-23 07:52:00,48.4,47.9,30.12,ESE,112,0.0,-999.0,98,-99.99,,,0.05,Acu-Link.com,2013-04-23 11:52:00,
2013-04-23 08:07:00,48.9,48.4,30.12,West,270,1.1,-999.0,98,-99.99,,,0.05,Acu-Link.com,2013-04-23 12:07:00,
2013-04-23 08:22:00,49.3,48.8,30.12,West,270,1.1,-999.0,98,-99.99,,,0.05,Acu-Link.com,2013-04-23 12:22:00,
2013-04-23 08:38:00,49.6,49.1,30.12,ESE,112,2.2,-999.0,98,-99.99,,,0.05,Acu-Link.com,2013-04-23 12:38:00,
2013-04-23 08:53:00,49.8,49.3,30.13,North,0,2.2,-999.0,98,-99.99,,,0.05,Acu-Link.com,2013-04-23 12:53:00,
2013-04-23 09:08:00,50.2,49.1,30.13,NNE,22,2.2,-999.0,96,-99.99,,,0.05,Acu-Link.com,2013-04-23 13:08:00,
2013-04-23 09:23:00,50.5,49.7,30.13,NW,315,1.1,-999.0,97,-99.99,,,0.05,Acu-Link.com,2013-04-23 13:23:00,
2013-04-23 09:38:00,51.3,50.5,30.13,NE,45,2.7,-999.0,97,-99.99,,,0.05,Acu-Link.com,2013-04-23 13:38:00,
2013-04-23 09:54:00,52.0,50.9,30.13,SW,225,0.0,-999.0,96,-99.99,,,0.05,Acu-Link.com,2013-04-23 13:54:00,
2013-04-23 10:09:00,53.6,51.0,30.13,North,0,1.7,-999.0,91,-99.99,,,0.05,Acu-Link.com,2013-04-23 14:09:00,
2013-04-23 10:24:00,53.4,50.8,30.14,West,270,1.7,-999.0,91,-99.99,,,0.05,Acu-Link.com,2013-04-23 14:24:00,
2013-04-23 10:40:00,54.7,51.2,30.14,WNW,292,1.7,-999.0,88,-99.99,,,0.05,Acu-Link.com,2013-04-23 14:40:00,
2013-04-23 10:55:00,55.8,51.7,30.14,East,90,1.7,-999.0,86,-99.99,,,0.05,Acu-Link.com,2013-04-23 14:55:00,
2013-04-23 11:10:00,55.9,51.5,30.14,ESE,112,0.0,-999.0,85,-99.99,,,0.05,Acu-Link.com,2013-04-23 15:10:00,
2013-04-23 11:25:00,53.8,50.6,30.13,SSW,202,0.0,-999.0,89,-99.99,,,0.05,Acu-Link.com,2013-04-23 15:25:00,
2013-04-23 11:41:00,54.0,51.1,30.14,NW,315,2.7,-999.0,90,-99.99,,,0.05,Acu-Link.com,2013-04-23 15:41:00,
2013-04-23 11:56:00,54.9,51.4,30.13,NW,315,3.2,-999.0,88,-99.99,,,0.05,Acu-Link.com,2013-04-23 15:56:00,
2013-04-23 12:11:00,54.5,51.0,30.14,North,0,1.1,-999.0,88,-99.99,,,0.05,Acu-Link.com,2013-04-23 16:11:00,
2013-04-23 12:26:00,56.5,52.7,30.13,NNE,22,0.0,-999.0,87,-99.99,,,0.05,Acu-Link.com,2013-04-23 16:26:00,
2013-04-23 12:42:00,55.9,52.1,30.14,West,270,2.2,-999.0,87,-99.99,,,0.05,Acu-Link.com,2013-04-23 16:42:00,
2013-04-23 12:57:00,57.2,52.4,30.15,NNW,337,2.7,-999.0,84,-99.99,,,0.05,Acu-Link.com,2013-04-23 16:57:00,
2013-04-23 13:12:00,57.2,52.1,30.12,WNW,292,3.2,-999.0,83,-99.99,,,0.05,Acu-Link.com,2013-04-23 17:12:00,
2013-04-23 13:28:00,59.5,53.0,30.11,ENE,67,1.7,-999.0,79,-99.99,,,0.05,Acu-Link.com,2013-04-23 17:28:00,
2013-04-23 13:43:00,58.3,51.5,30.10,West,270,2.2,-999.0,78,-99.99,,,0.05,Acu-Link.com,2013-04-23 17:43:00,
2013-04-23 13:58:00,60.8,53.5,30.09,West,270,2.7,-999.0,77,-99.99,,,0.05,Acu-Link.com,2013-04-23 17:58:00,
2013-04-23 14:14:00,65.3,54.9,30.09,NNW,337,1.1,-999.0,69,-99.99,,,0.05,Acu-Link.com,2013-04-23 18:14:00,
2013-04-23 14:29:00,64.9,54.9,30.08,NNE,22,1.1,-999.0,70,-99.99,,,0.05,Acu-Link.com,2013-04-23 18:29:00,
2013-04-23 14:44:00,65.3,56.4,30.07,ENE,67,1.7,-999.0,73,-99.99,,,0.05,Acu-Link.com,2013-04-23 18:44:00,
2013-04-23 14:59:00,65.1,55.8,30.06,WNW,292,3.2,-999.0,72,-99.99,,,0.05,Acu-Link.com,2013-04-23 18:59:00,
2013-04-23 15:14:00,65.1,56.2,30.06,East,90,1.7,-999.0,73,-99.99,,,0.05,Acu-Link.com,2013-04-23 19:14:00,
2013-04-23 15:29:00,65.7,55.6,30.05,North,0,1.1,-999.0,70,-99.99,,,0.05,Acu-Link.com,2013-04-23 19:29:00,
2013-04-23 15:45:00,65.7,54.4,30.04,WNW,292,2.7,-999.0,67,-99.99,,,0.05,Acu-Link.com,2013-04-23 19:45:00,
2013-04-23 16:00:00,65.8,54.9,30.04,SW,225,0.0,-999.0,68,-99.99,,,0.05,Acu-Link.com,2013-04-23 20:00:00,
2013-04-23 16:15:00,66.4,55.5,30.03,East,90,1.7,-999.0,68,-99.99,,,0.05,Acu-Link.com,2013-04-23 20:15:00,
2013-04-23 16:30:00,66.7,55.4,30.01,ENE,67,0.0,-999.0,67,-99.99,,,0.05,Acu-Link.com,2013-04-23 20:30:00,
2013-04-23 16:45:00,66.7,55.0,30.01,NE,45,0.0,-999.0,66,-99.99,,,0.05,Acu-Link.com,2013-04-23 20:45:00,
2013-04-23 17:01:00,67.1,54.5,30.01,ESE,112,0.0,-999.0,64,-99.99,,,0.05,Acu-Link.com,2013-04-23 21:01:00,
2013-04-23 17:16:00,67.6,55.0,30.00,NNE,22,1.7,-999.0,64,-99.99,,,0.05,Acu-Link.com,2013-04-23 21:16:00,
2013-04-23 17:31:00,68.4,54.9,30.00,West,270,1.7,-999.0,62,-99.99,,,0.05,Acu-Link.com,2013-04-23 21:31:00,
2013-04-23 17:46:00,68.4,55.3,30.00,ESE,112,0.0,-999.0,63,-99.99,,,0.05,Acu-Link.com,2013-04-23 21:46:00,
2013-04-23 18:01:00,68.0,55.8,30.00,ESE,112,2.2,-999.0,65,-99.99,,,0.05,Acu-Link.com,2013-04-23 22:01:00,
2013-04-23 18:17:00,68.0,54.9,30.00,ESE,112,0.0,-999.0,63,-99.99,,,0.05,Acu-Link.com,2013-04-23 22:17:00,
2013-04-23 18:32:00,68.2,55.5,29.99,East,90,0.0,-999.0,64,-99.99,,,0.05,Acu-Link.com,2013-04-23 22:32:00,
2013-04-23 18:47:00,67.1,54.9,29.99,ESE,112,1.1,-999.0,65,-99.99,,,0.05,Acu-Link.com,2013-04-23 22:47:00,
2013-04-23 19:02:00,66.2,56.5,29.99,ESE,112,0.0,-999.0,71,-99.99,,,0.05,Acu-Link.com,2013-04-23 23:02:00,
2013-04-23 19:18:00,64.4,56.3,29.99,ESE,112,0.0,-999.0,75,-99.99,,,0.05,Acu-Link.com,2013-04-23 23:18:00,
2013-04-23 19:33:00,63.1,56.8,29.99,ESE,112,0.0,-999.0,80,-99.99,,,0.05,Acu-Link.com,2013-04-23 23:33:00,
2013-04-23 19:48:00,61.7,56.5,29.99,ESE,112,0.0,-999.0,83,-99.99,,,0.05,Acu-Link.com,2013-04-23 23:48:00,
2013-04-23 20:03:00,60.1,56.2,29.99,ESE,112,0.0,-999.0,87,-99.99,,,0.05,Acu-Link.com,2013-04-24 00:03:00,
2013-04-23 20:19:00,58.6,55.7,30.00,ESE,112,0.0,-999.0,90,-99.99,,,0.05,Acu-Link.com,2013-04-24 00:19:00,
2013-04-23 20:34:00,57.4,55.4,30.01,ESE,112,0.0,-999.0,93,-99.99,,,0.05,Acu-Link.com,2013-04-24 00:34:00,
2013-04-23 20:49:00,56.3,54.9,30.01,ESE,112,0.0,-999.0,95,-99.99,,,0.05,Acu-Link.com,2013-04-24 00:49:00,
2013-04-23 21:05:00,55.4,54.8,30.02,East,90,0.0,-999.0,98,-99.99,,,0.05,Acu-Link.com,2013-04-24 01:05:00,
2013-04-23 21:20:00,54.9,54.3,30.02,ESE,112,0.0,-999.0,98,-99.99,,,0.05,Acu-Link.com,2013-04-24 01:20:00,
2013-04-23 21:35:00,54.3,53.7,30.02,ESE,112,0.0,-999.0,98,-99.99,,,0.05,Acu-Link.com,2013-04-24 01:35:00,
2013-04-23 21:51:00,54.0,53.4,30.02,ESE,112,0.0,-999.0,98,-99.99,,,0.05,Acu-Link.com,2013-04-24 01:51:00,
2013-04-23 22:06:00,53.6,53.0,30.02,East,90,0.0,-999.0,98,-99.99,,,0.05,Acu-Link.com,2013-04-24 02:06:00,
2013-04-23 22:21:00,53.2,52.6,30.02,ESE,112,0.0,-999.0,98,-99.99,,,0.05,Acu-Link.com,2013-04-24 02:21:00,
2013-04-23 22:36:00,53.1,52.5,30.02,ESE,112,0.0,-999.0,98,-99.99,,,0.05,Acu-Link.com,2013-04-24 02:36:00,
2013-04-23 23:07:00,52.5,52.0,30.01,ESE,112,0.0,-999.0,98,-99.99,,,0.05,Acu-Link.com,2013-04-24 03:07:00,
2013-04-23 23:22:00,52.2,51.7,30.00,ESE,112,0.0,-999.0,98,-99.99,,,0.05,Acu-Link.com,2013-04-24 03:22:00,
2013-04-23 23:38:00,52.2,51.7,30.00,East,90,2.2,-999.0,98,-99.99,,,0.05,Acu-Link.com,2013-04-24 03:38:00,
2013-04-23 23:53:00,52.9,52.4,30.00,East,90,0.0,-999.0,98,-99.99,,,0.05,Acu-Link.com,2013-04-24 03:53:00,